www.pogodaiklimat.ru

Погода и климат >> Архив погоды >> Россия >> Эвенкия >> Тутончаны


ПОГОДА в Тутончанах

  • Прогноз погоды в Тутончанах
  • Монитор погоды в Тутончанах
  • Климат города

АРХИВ ПОГОДЫ в Тутончанах

Время (UTC), дата Ветер
(напр.,м/с)
 
Видим.   Явления Облачность Т
(С)
Тd
(С)
f
(%)
Тe
(С)
Тes
(С)
Комфортность P
(гПа)
Po
(гПа)
Тmin
(С)
Tmax
(С)
R
(мм)
R24
(мм)
S
(см)
06 14.04 ЮЗ 5 2000 м слабый ливневой снег {метель} 10/10 600 м
[Cb cap]
-3.3 -4.7 90 -10 -10 990.7 977.4
09 14.04 ЮЗ 6-12
{12}
50 км позёмок {ливн. осадки, метель} 8/8 600 м
[Cb cap]
+0.1 -9.3 49 -6 -5 993.7 980.5
12 14.04 СЗ 7-10
{13}
50 км позёмок {ливн. осадки, метель} 9/9 600 м
[Cb cap]
-2.3 -11.5 49 -9 -9 997.4 984.0 +0.5 3
15 14.04 СВ 1
{11}
н/о {метель} 6/6 1000 м
[Sc]
-7.1 -12.4 66 -9 -9 998.6 985.0
18 14.04 СВ 1 н/о {метель} 9/9 1000 м
[Sc]
-5.7 -10.4 69 -8 -8 997.7 984.2
21 14.04 В 2 н/о слабый ливневой снег 10/10 600 м
[Cb cap]
-6.4 -8.8 83 -11 -11 997.3 983.7
00 15.04 В 1 20 км слабый ливневой снег 9/9 600 м
[Cb cap]
-6.7 -7.6 93 -9 -9 998.1 984.5 -7.1 1 94
03 15.04 Ю 3 50 км {ливн. осадки} 9/8 600 м
[Cb cap Ci fib]
-4.1 -10.4 61 -9 -8 998.1 984.7
06 15.04 Ю 2 50 км {ливн. осадки} 9/9 600 м
[Cb cap]
-1.9 -10.8 51 -5 -4 997.2 983.8
09 15.04 Ю 4 50 км {ливн. осадки} 9/8 600 м
[Cb cap Ci fib]
-0.8 -10.4 48 -6 -5 997.0 983.7
12 15.04 ЮВ 3
{10}
50 км {ливн. осадки} 9/6 600 м
[Cb cap Ac trans]
-1.3 -8.0 60 -6 -6 997.0 983.7 -0.4 0.0
15 15.04 В 3 н/о 9/9 600 м
[Cb cap]
-2.7 -6.0 78 -8 -8 996.6 983.2
18 15.04 СВ 2 н/о 6/6 1000 м
[Sc]
-3.6 -6.5 80 -8 -8 995.3 982.0
21 15.04 В 2 н/о слабый ливневой снег 10/10 600 м
[Cb cap]
-3.0 -5.7 82 -7 -7 993.6 980.3
00 16.04 штиль 0 50 км в посл. час ливневой снег 10/10 600 м
[Cb cap]
-3.0 -4.0 93 -4 -4 993.9 980.6 -4.1 0.3 92
03 16.04 З 4 50 км 8/5 600 м
[Cb calv Ac trans Ci fib]
-1.0 -9.7 52 -6 -5 994.5 981.3
06 16.04 ЮЗ 3 50 км 9/8 600 м
[Cb calv Ci fib]
+0.5 -9.0 49 -3 -2 995.0 981.9
09 16.04 З 1 20 км слабый ливневой снег 10/10 600 м
[Cb cap]
+1.5 -6.7 54 0 0 995.8 982.6
12 16.04 ЮЗ 4 50 км {ливн. осадки} 8/8 600 м
[Cb cap]
-1.8 -5.2 78 -8 -7 997.6 984.3 +1.8 0.0
15 16.04 Ю 2 н/о 10/10 600 м
[Cb cap]
-2.5 -7.3 70 -6 -6 999.2 985.8
18 16.04 ЮЗ 1 н/о 8/0
[Ci fib]
-8.4 -9.9 89 -11 -11 1000.0 986.4
21 16.04 штиль 0 н/о 3/0
[Ci fib]
-14.6 -15.9 90 -15 -15 1000.4 986.4
00 17.04 штиль 0 50 км 4/0
[Ac trans Ci fib]
-16.6 -17.9 90 -17 -16 1000.4 986.4 -17.0 92
03 17.04 штиль 0 50 км 3/1 600 м
[Cu hum Ac trans Ci fib]
-6.6 -11.7 67 -7 -1 998.5 984.9
06 17.04 СВ 3 50 км 8/0
[Ci fib]
-0.2 -8.8 52 -4 +2 995.5 982.3
09 17.04 С 4
{11}
50 км 9/0
[Ac trans Ci fib]
+1.4 -10.0 42 -3 -1 993.9 980.9
12 17.04 С 5-10
{10}
50 км 10/8 1000 м
[Sc As op]
+0.4 -8.8 50 -5 -5 994.0 980.9 +1.5
15 17.04 С 3
{10}
н/о 10/10 1000 м
[Sc]
-0.7 -10.2 49 -5 -5 994.3 981.1
18 17.04 СЗ 1 н/о 9/9 1000 м
[Sc]
-5.4 -12.4 58 -7 -7 995.8 982.4
21 17.04 СЗ 5 н/о 4/4 1000 м
[Sc]
-8.4 -14.2 63 -16 -16 998.2 984.6
00 18.04 ЮЗ 6-10
{10}
50 км 6/4 1000 м
[Sc Ac trans Ci fib]
-10.0 -14.8 68 -18 -18 1001.1 987.3 -10.0 90
03 18.04 ЮЗ 6
{11}
50 км позёмок {метель} 5/3 600 м
[Cu Sc Ci fib]
-9.1 -15.3 61 -17 -16 1003.8 990.0 -10.2
06 18.04 ЮЗ 8-12
{12}
50 км позёмок {метель} 5/3 1000 м
[Sc Ci fib]
-7.5 -15.8 51 -16 -15 1005.6 991.9
09 18.04 ЮЗ 7-11
{13}
50 км позёмок {метель} 5/0
[Ac trans Ci fib]
-7.6 -16.6 48 -16 -15 1008.9 995.2
12 18.04 СЗ 7
{11}
50 км позёмок {метель} 8/1 1000 м
[Sc Ci fib]
-8.8 -18.8 44 -17 -17 1011.7 997.8 -7.3
15 18.04 СЗ 3
{10}
н/о {метель} 4/3 1000 м
[Sc Ci fib]
-12.4 -20.7 50 -18 -18 1013.9 999.9
18 18.04 СЗ 1 н/о {метель} 4/3 1000 м
[Sc Ci fib]
-20.6 -23.9 75 -24 -24 1015.4 1000.8
21 18.04 СЗ 2 н/о 3/3 1000 м
[Sc]
-23.9 -25.7 85 -30 -30 1015.7 1000.9
00 19.04 штиль 0 50 км 3/3 1000 м
[Sc Ci fib]
-22.6 -25.8 75 -23 -22 1015.9 1001.2 -25.4 90
03 19.04 штиль 0 50 км 4/0
[Ac trans Ci fib]
-7.7 -18.3 42 -8 -2 1015.0 1001.2
06 19.04 Ю 4 50 км 4/0
[Ci fib]
-5.2 -17.7 37 -11 -6 1013.5 999.8
09 19.04 Ю 4 50 км 3/0
[Ci fib]
-3.5 -18.5 30 -9 -5 1012.7 999.1
12 19.04 Ю 3 50 км 8/5 1000 м
[Sc Cs]
-4.1 -18.3 32 -9 -8 1012.8 999.2 -3.1
15 19.04 В 2 н/о 9/9 1000 м
[Sc]
-6.5 -16.0 47 -10 -10 1013.3 999.5
18 19.04 СВ 1 н/о 8/8 1000 м
[Sc]
-8.9 -16.2 55 -11 -11 1013.1 999.2
21 19.04 СВ 1 н/о 6/6 1000 м
[Sc]
-13.7 -18.0 70 -16 -16 1012.8 998.6
00 20.04 В 1 50 км 6/4 1000 м
[Sc Ci fib]
-12.3 -17.5 65 -15 -14 1012.7 998.7 -17.0 90
03 20.04 ЮВ 4 50 км 9/0
[Cs]
-4.3 -12.2 54 -10 -7 1011.4 997.8
06 20.04 Ю 6 50 км 10/6 1000 м
[Sc As op]
-0.6 -6.9 62 -7 -7 1010.0 996.6
09 20.04 Ю 5
{11}
50 км {снег} 10/8 600 м
[Cb cap As op]
+0.6 -7.1 56 -5 -5 1009.2 995.9
12 20.04 ЮВ 5-10
{11}
50 км {снег} 8/8 600 м
[Cb cap]
+1.4 -4.8 63 -4 -4 1008.6 995.4 +1.8 0.0
15 20.04 В 2 н/о 10/10 600 м
[Cb cap]
-0.2 -6.0 65 -3 -3 1007.7 994.3
18 20.04 В 3 н/о слабый ливневой снег 10/10 600 м
[Cb cap]
-0.2 -4.2 74 -5 -5 1005.4 992.0
21 20.04 В 3 н/о слабый ливневой снег 10/10 600 м
[Cb cap]
-0.8 -2.1 91 -6 -6 1003.0 989.6
00 21.04 ЮВ 3 50 км {ливн. осадки} 10/10 600 м
[Cb cap]
+0.3 -1.7 86 -4 -4 1001.3 988.0 -1.0 0.4 91
03 21.04 Ю 4 50 км 10/10 600 м
[Cb cap]
+2.4 -1.5 75 -2 -2 1000.1 987.0

 

Местоположение метеостанции Тутончаны (Эвенкия, Россия): широта 64.20 долгота 93.78 высота над уровнем моря 106 м.

В архиве по умолчанию представлена погода в Тутончанах за последнюю неделю. Архивные данные за месяц целиком и за предыдущие месяцы, начиная с января 2011 года, Вы можете получить, выбрав интересующий диапазон дат из раскрывающегося списка и нажав кнопку "Ввод!".


*Определитесь, кто Вы:
робот инопланетянин человек

Внимание! Время в таблицах - всемирное. Для получения местного времени необходимо прибавить поправку, которая в Тутончанах равна 7 ч.

Смотрите также архив погоды в соседних городах и на ближайших метеорологических станциях:

Погода в Кузьмовке (Эвенкия, Россия) (225 км)
Погода в Большом Пороге (Эвенкия, Россия) (237 км)
Погода в Тембенчи (Эвенкия, Россия) (258 км)
Погода в Агате (Эвенкия, Россия) (298 км)
Погода в Верещагино (Красноярский край, Россия) (305 км)
Погода в Бахте (Красноярский край, Россия) (306 км)
Погода в Верхнеимбатске (Красноярский край, Россия) (310 км)
Погода в Байките (Эвенкия, Россия) (310 км)
Погода в Туре (Эвенкия, Россия) (320 км)
Погода в Туруханске (Красноярский край, Россия) (326 км)

Пояснения к столбцам:

Ветер - указаны скорость ветра в м/с - средняя за 10 мин, порывы в срок и между сроками (в фигурных скобках) и направление, откуда дует ветер: С - северный, СВ - северо-восточный, В - восточный, ЮВ - юго-восточный, Ю - южный, ЮЗ - юго-западный, З - западный, СЗ - северо-западный.
Видимость - горизонтальная дальность видимости в метрах или километрах. При видимости от 1 до 10 км при отсутствии осадков обычно наблюдается дымка, при ухудшении видимости до 1 км и менее - туман. В сухую погоду видимость может ухудшаться дымом, пылью или мглою.
Явления - указаны атмосферные явления, наблюдавшиеся в срок или в последний час перед сроком; фигурными скобками обозначены явления, наблюдавшиеся между сроками (за 1-3 часа до срока); квадратными скобками обозначены град или гололедные отложения с указанием их диаметра в мм.
Облачность - указаны через наклонную черту общая и нижняя облачность в баллах и высота нижней границы облаков в метрах; квадратными скобками обозначены формы облаков: Ci - перистые, Cs - перисто-слоистые, Cc - перисто-кучевые, Ac - высококучевые, As - высокослоистые, Sc - слоисто-кучевые, Ns - слоисто-дождевые, Cu - кучевые, Cb - кучево-дождевые. Подробнее классификацию облаков см. в Атласе облаков (PDF).
T - Температура воздуха - температура, измеренная на высоте 2 м над землей.
Td - Температура точки росы - температура, при понижении до которой содержащийся в воздухе водяной пар достигнет насыщения.
f - Относительная влажность воздуха - влажноcть воздуха, измеренная на высоте 2 м над землей.
Te - Эффективная температура - температура, которую ощущает одетый по сезону человек в тени. Характеристика душности погоды. При расчете учитывается влияние влажности воздуха и скорости ветра на теплоощущения человека.
Tes - Эффективная температура на солнце - температура, которую ощущает человек, с поправкой на солнечный нагрев. Характеристика знойности погоды. Зависит от высоты солнца над горизонтом, облачности и скорости ветра. Ночью, в пасмурную погоду, а также при ветре 12 м/с и более поправка равна нулю.
P - Атмосферное давление - приведенное к уровню моря атмосферное давление.
Po - Атмосферное давление - измеренное на уровне метеостанции атмосферное давление.
Tmin - Минимальная температура - минимум температуры воздуха на высоте 2 м над землей.
Tmax - Максимальная температура - максимум температуры воздуха на высоте 2 м над землей.
R - Количество осадков - Количество выпавших осадков за период времени, мм. При наведении курсора мыши на число - период времени, за который выпало указанное количество осадков.
R24 - Количество осадков - Количество выпавших осадков за 24 часа, мм.
S - Снежный покров - Высота снежного покрова, см. При наведении курсора мыши на число - состояние снежного покрова и степень покрытия местности в баллах.